SCP
0 0 0 0 0 0 0 0 0 0 0 0 0 0 0 0 0 0 0 0 0 0 0 0 0 0 0 0 0 0 0 0 1 1 1 1 1 1
0 0 0 0 0 0 0 0 0 0 0 0 0 0 0 0 0 0 0 0 0 0 0 0 0 0 0 0 0 0 0 0 0 0 1 1 1 0
0 0 0 0 0 0 0 0 0 0 0 0 0 0 0 0 0 -0 0 0 0 -0 0 0 0 0 0 0 0 0 0 0 0 0 0 0 0 0
0 0 0 0 -0 -0 -0 0 0 0 0 0 -0 0 -0 -0 -0 -0 0 0 0 -0 0 0 0 0 0 0 0 0 0 0 0 0 0 0 0 0
0 0 -0 0 -0 -0 -0 -0 -0 0 0 -0 0 -0 0 -0 -0 -0 0 0 0 -0 -0 -0 0 0 0 0 0 0 0 0 0 0 0 0 0 0
0 0 0 0 -0 -0 -0 -0 0 -0 -0 -0 -0 -0 0 -0 -0 -0 -0 0 0 0 -0 -0 0 -0 0 0 0 0 0 0 0 0 0 0 0 0
0 0 0 0 -0 -0 0 0 -0 -0 -0 -0 -0 0 0 0 0 0 -0 -0 -0 -0 0 0 0 0 0 0 0 0 0 0 0 0 0 0 0 0
0 0 0 0 0 -0 -0 -0 -0 0 -0 -0 -0 -0 0 0 0 0 -0 0 0 -0 0 -0 0 0 0 0 -0 -0 0 0 0 0 0 0 0 0
0 0 0 0 0 0 -0 -0 -0 -0 -0 0 -0 -0 -0 0 -0 0 -0 -0 -0 -0 0 0 -0 -0 -0 0 -0 -0 -0 -0 0 -0 0 0 0 0
0 0 0 0 0 0 0 0 -0 0 0 0 -0 -0 -0 -0 -0 -0 -0 -0 -0 0 0 0 0 0 0 0 -0 -0 -0 -0 -0 0 0 0 0 0
0 0 0 0 0 0 0 0 0 0 -0 -0 -0 -0 0 0 -0 -0 0 0 -0 -0 -0 -0 -0 0 0 -0 0 -0 -0 -0 -0 -0 -0 -0 -0 0
0 0 0 0 0 0 0 0 0 0 0 -0 0 0 0 0 0 0 -0 0 0 -0 0 0 0 0 0 0 0 0 0 -0 -0 -0 -0 0 0 0
0 0 0 0 0 0 0 0 0 0 0 0 0 0 0 0 0 0 0 0 0 0 0 0 0 0 0 0 0 0 0 0 0 0 0 0 0 0
0 0 0 0 0 0 0 0 0 0 0 0 0 0 0 0 0 0 0 0 0 0 0 0 -0 0 -0 -0 0 0 0 0 0 0 0 0 0 0
0 0 0 0 0 0 0 0 0 0 0 0 0 0 0 0 0 0 -0 -0 0 0 -0 -0 0 -0 -0 0 -0 -0 0 0 0 0 0 -0 -0 0
0 0 0 0 0 0 0 0 0 0 0 0 0 0 0 0 0 0 0 0 0 0 0 0 0 -0 -0 -0 0 0 0 0 0 0 0 0 0 0
0 0 0 0 0 0 -0 0 0 0 0 0 0 0 0 0 0 0 0 0 0 0 0 0 0 0 0 0 0 0 0 0 0 0 0 0 0 0
0 0 0 0 0 0 0 0 0 0 0 0 0 0 0 0 0 0 0 0 0 0 0 0 0 0 0 0 0 0 0 0 0 0 0 0 0 0
0 0 0 0 0 0 0 0 -0 0 0 0 0 0 0 0 0 0 0 0 0 0 0 0 0 0 0 0 0 0 0 0 0 0 0 0 0 0
0 -0 -0 0 0 0 0 0 0 0 0 0 0 0 0 0 0 0 0 0 0 0 0 0 0 0 0 0 0 0 0 0 0 0 0 0 0 0
0 0 0 0 -0 0 0 0 0 0 0 -0 0 0 0 0 0 0 0 0 0 0 0 0 0 0 0 0 0 0 0 0 0 -0 0 0 0 0
0 0 0 0 0 0 0 0 0 0 0 0 0 -0 -0 -0 0 0 0 0 0 -0 0 0 0 0 0 0 0 0 0 0 0 0 0 0 0 0
0 0 -0 0 0 0 0 0 0 0 0 0 -0 -0 -0 -0 -0 -0 -0 0 0 0 -0 0 0 0 0 0 0 0 0 0 0 0 0 -0 -0 -0
Wind_Speed_500mb
37 41 27 17 17 10 11 10 11 8 11 6 4 13 12 11 13 12 18 19 21 17 31 32 43 42 46 48 50 60 58 58 55 56 50 49 48 46
40 43 22 14 9 6 7 9 7 12 6 3 18 17 15 8 14 12 12 12 11 19 37 38 39 40 45 44 52 55 57 56 56 53 51 50 46 46
39 39 27 20 14 12 7 7 10 9 3 4 12 14 15 9 16 20 5 10 12 15 20 30 38 35 40 43 48 52 54 56 53 51 50 50 46 45
35 30 27 23 18 17 13 13 12 8 5 8 8 12 20 30 19 13 6 4 10 14 16 17 26 31 37 43 45 49 53 53 45 43 45 50 46 45
31 33 30 26 26 24 12 13 17 15 11 9 12 12 17 30 37 38 28 15 7 10 17 19 13 18 32 40 43 45 48 46 45 40 40 44 45 42
34 33 36 36 29 30 24 18 18 15 15 11 11 7 5 8 8 17 24 39 38 25 6 5 1 13 16 28 35 37 45 45 46 39 39 42 42 40
39 32 29 34 33 29 25 25 18 13 10 11 15 13 14 5 4 12 14 19 31 41 43 39 24 10 10 9 24 41 44 47 47 42 39 39 40 39
55 36 36 37 38 34 28 23 19 17 18 18 21 26 26 23 17 19 15 7 12 29 46 55 53 48 30 27 17 27 41 44 45 43 40 39 39 37
46 51 42 38 39 37 34 27 19 14 14 12 15 14 14 20 30 37 35 32 25 14 31 42 58 67 59 36 21 21 31 38 39 37 34 32 31 33
49 44 35 30 31 35 32 41 34 26 19 15 15 16 17 22 24 35 36 36 33 32 33 40 44 51 61 59 38 20 18 24 29 28 26 25 29 31
39 46 41 29 25 29 32 35 40 49 47 39 35 34 28 28 33 28 23 28 38 37 38 46 44 42 45 50 52 53 53 44 43 43 53 53 67 77
32 37 39 32 24 24 24 29 28 30 34 43 38 33 28 20 21 22 20 16 11 11 16 18 27 19 46 43 37 37 39 53 68 66 64 63 65 63
24 25 26 27 23 22 19 22 18 15 11 16 31 26 22 20 17 9 9 11 9 10 12 20 20 22 38 44 40 35 35 36 33 43 47 47 34 30
28 29 24 19 17 16 13 18 23 21 13 5 18 12 11 20 34 27 5 8 8 20 20 21 19 21 35 41 44 43 37 26 35 44 43 45 38 34
31 31 21 21 7 11 17 17 15 18 13 2 14 14 21 18 19 26 36 22 14 24 26 23 23 21 16 23 31 33 35 35 31 35 35 26 26 26
35 33 22 25 2 8 9 11 11 8 2 6 8 5 12 18 14 8 21 25 25 21 32 27 20 21 21 17 25 24 23 14 21 21 29 23 21 18
35 35 27 27 6 4 0 5 11 7 7 10 8 3 7 10 11 8 7 13 23 23 17 21 14 18 17 20 19 18 15 15 15 14 16 16 16 12
38 38 25 27 12 4 3 3 2 5 14 16 11 13 12 11 8 9 5 8 15 13 15 23 24 25 18 15 11 18 15 18 12 19 19 14 1 8
34 34 25 27 14 5 8 3 3 5 10 4 16 7 8 11 10 8 12 14 9 6 1 7 15 16 21 17 20 16 17 15 12 13 9 4 18 9
31 34 32 20 15 4 8 4 7 6 5 7 10 9 10 8 2 10 9 5 6 5 3 7 12 12 26 6 7 25 20 21 13 11 13 10 10 6
20 28 27 24 17 12 11 14 8 8 6 5 2 5 4 6 7 6 7 6 4 4 17 15 8 4 14 11 12 8 25 26 24 18 13 17 18 15
26 21 17 27 16 11 15 19 20 15 11 9 6 8 16 7 5 14 6 13 10 4 6 9 10 17 18 11 15 9 16 15 17 25 25 27 20 15
23 31 20 14 18 19 15 21 23 20 17 16 12 10 13 17 15 7 10 5 10 8 12 13 12 7 5 11 14 12 7 11 8 9 11 14 11 10
Wind_Direction_500mb
355 345 330 317 309 275 278 292 288 307 324 349 324 332 350 327 6 64 26 233 248 210 251 234 229 217 211 220 222 223 236 242 242 243 238 232 228 222
3 5 5 350 341 305 312 308 319 310 314 97 346 345 358 302 307 316 282 324 285 217 236 247 244 231 230 233 234 232 237 240 239 234 230 227 227 220
20 23 26 25 52 40 30 348 358 13 326 356 4 19 25 30 357 330 296 313 300 299 254 244 244 245 236 235 234 234 234 232 230 226 225 221 219 216
28 36 32 26 21 16 37 40 37 35 77 20 46 60 54 65 55 45 19 258 278 281 289 270 230 244 242 234 232 229 228 220 220 220 221 214 214 210
32 35 28 31 39 27 41 70 46 50 52 75 90 67 85 79 77 68 61 54 354 293 282 295 272 250 235 228 223 220 214 214 213 213 210 208 207 203
34 37 35 41 48 45 61 74 71 64 41 58 41 46 124 129 54 49 56 61 66 58 75 121 276 271 264 227 216 208 207 207 201 202 200 198 199 198
31 27 39 37 42 44 47 55 66 67 60 56 43 44 66 101 13 24 26 30 41 55 59 76 83 102 121 171 209 209 201 192 192 194 193 195 197 196
43 48 54 53 45 44 45 43 52 59 71 64 63 63 60 48 44 37 22 16 40 37 60 64 75 77 82 82 86 157 175 179 183 186 187 192 197 197
44 48 55 59 57 49 42 33 38 44 51 43 34 53 47 47 72 76 66 63 69 51 71 60 71 74 74 71 101 123 156 170 175 181 189 194 196 196
42 39 44 53 45 39 43 37 46 52 57 62 72 55 71 92 77 69 63 57 59 60 77 75 70 71 79 76 76 114 148 162 171 176 178 180 170 173
35 27 27 31 30 43 61 68 61 63 63 64 69 72 86 93 87 80 74 67 78 72 66 63 53 76 72 82 86 98 116 151 164 170 165 167 163 151
25 17 23 34 53 67 66 63 67 73 69 64 63 64 67 87 67 43 25 354 344 5 30 42 41 42 69 70 86 99 104 116 123 124 131 136 144 153
19 7 24 46 63 56 38 35 24 21 38 59 47 42 47 37 16 350 27 61 147 102 42 43 74 82 101 94 75 81 95 104 120 125 127 124 130 150
7 10 17 33 48 50 50 30 28 23 7 150 35 53 84 66 58 58 47 142 127 100 73 116 111 81 90 91 94 85 75 90 102 99 107 111 109 111
337 346 352 355 347 65 56 46 53 39 83 76 30 54 64 59 50 48 38 56 134 139 105 112 105 113 94 94 98 95 96 84 103 109 114 106 112 118
321 337 341 339 357 65 43 28 35 13 148 204 354 7 73 56 40 66 39 46 61 120 129 118 107 122 124 105 108 114 110 114 112 97 95 116 125 114
327 335 343 346 341 210 266 38 66 78 34 8 290 88 63 68 88 127 74 91 65 94 97 110 112 133 111 108 113 129 133 128 124 137 135 109 97 97
322 324 334 332 343 243 156 269 336 34 359 356 51 90 98 87 108 61 121 124 99 108 87 118 127 128 126 129 125 140 129 139 169 167 174 210 149 82
322 335 326 321 327 305 240 103 39 320 261 326 342 134 81 81 41 54 45 200 142 120 84 122 159 159 153 139 157 162 157 173 168 147 142 198 246 220
313 317 318 318 315 241 214 299 195 355 164 43 46 42 99 23 95 53 37 75 8 159 164 273 204 41 195 142 151 178 172 186 173 142 103 127 135 181
320 312 314 305 289 261 216 229 216 227 138 193 169 179 267 317 289 314 292 295 75 294 234 186 209 225 112 137 115 144 198 195 201 206 197 221 245 259
296 314 345 309 286 262 233 225 204 226 224 229 205 239 268 277 284 283 259 292 297 50 286 265 230 177 164 181 199 94 114 127 153 191 195 194 200 205
299 301 292 310 288 276 225 217 226 219 215 240 226 233 248 257 274 297 289 250 296 177 99 108 84 83 332 254 193 177 154 153 165 151 147 127 142 182
Wind_Speed_850mb
37 41 27 17 17 10 11 10 11 8 11 6 4 13 12 11 13 12 18 19 21 17 31 32 43 42 46 48 50 60 58 58 55 56 50 49 48 46
40 43 22 14 9 6 7 9 7 12 6 3 18 17 15 8 14 12 12 12 11 19 37 38 39 40 45 44 52 55 57 56 56 53 51 50 46 46
39 39 27 20 14 12 7 7 10 9 3 4 12 14 15 9 16 20 5 10 12 15 20 30 38 35 40 43 48 52 54 56 53 51 50 50 46 45
35 30 27 23 18 17 13 13 12 8 5 8 8 12 20 30 19 13 6 4 10 14 16 17 26 31 37 43 45 49 53 53 45 43 45 50 46 45
31 33 30 26 26 24 12 13 17 15 11 9 12 12 17 30 37 38 28 15 7 10 17 19 13 18 32 40 43 45 48 46 45 40 40 44 45 42
34 33 36 36 29 30 24 18 18 15 15 11 11 7 5 8 8 17 24 39 38 25 6 5 1 13 16 28 35 37 45 45 46 39 39 42 42 40
39 32 29 34 33 29 25 25 18 13 10 11 15 13 14 5 4 12 14 19 31 41 43 39 24 10 10 9 24 41 44 47 47 42 39 39 40 39
55 36 36 37 38 34 28 23 19 17 18 18 21 26 26 23 17 19 15 7 12 29 46 55 53 48 30 27 17 27 41 44 45 43 40 39 39 37
46 51 42 38 39 37 34 27 19 14 14 12 15 14 14 20 30 37 35 32 25 14 31 42 58 67 59 36 21 21 31 38 39 37 34 32 31 33
49 44 35 30 31 35 32 41 34 26 19 15 15 16 17 22 24 35 36 36 33 32 33 40 44 51 61 59 38 20 18 24 29 28 26 25 29 31
39 46 41 29 25 29 32 35 40 49 47 39 35 34 28 28 33 28 23 28 38 37 38 46 44 42 45 50 52 53 53 44 43 43 53 53 67 77
32 37 39 32 24 24 24 29 28 30 34 43 38 33 28 20 21 22 20 16 11 11 16 18 27 19 46 43 37 37 39 53 68 66 64 63 65 63
24 25 26 27 23 22 19 22 18 15 11 16 31 26 22 20 17 9 9 11 9 10 12 20 20 22 38 44 40 35 35 36 33 43 47 47 34 30
28 29 24 19 17 16 13 18 23 21 13 5 18 12 11 20 34 27 5 8 8 20 20 21 19 21 35 41 44 43 37 26 35 44 43 45 38 34
31 31 21 21 7 11 17 17 15 18 13 2 14 14 21 18 19 26 36 22 14 24 26 23 23 21 16 23 31 33 35 35 31 35 35 26 26 26
35 33 22 25 2 8 9 11 11 8 2 6 8 5 12 18 14 8 21 25 25 21 32 27 20 21 21 17 25 24 23 14 21 21 29 23 21 18
35 35 27 27 6 4 0 5 11 7 7 10 8 3 7 10 11 8 7 13 23 23 17 21 14 18 17 20 19 18 15 15 15 14 16 16 16 12
38 38 25 27 12 4 3 3 2 5 14 16 11 13 12 11 8 9 5 8 15 13 15 23 24 25 18 15 11 18 15 18 12 19 19 14 1 8
34 34 25 27 14 5 8 3 3 5 10 4 16 7 8 11 10 8 12 14 9 6 1 7 15 16 21 17 20 16 17 15 12 13 9 4 18 9
31 34 32 20 15 4 8 4 7 6 5 7 10 9 10 8 2 10 9 5 6 5 3 7 12 12 26 6 7 25 20 21 13 11 13 10 10 6
20 28 27 24 17 12 11 14 8 8 6 5 2 5 4 6 7 6 7 6 4 4 17 15 8 4 14 11 12 8 25 26 24 18 13 17 18 15
26 21 17 27 16 11 15 19 20 15 11 9 6 8 16 7 5 14 6 13 10 4 6 9 10 17 18 11 15 9 16 15 17 25 25 27 20 15
23 31 20 14 18 19 15 21 23 20 17 16 12 10 13 17 15 7 10 5 10 8 12 13 12 7 5 11 14 12 7 11 8 9 11 14 11 10
Wind_Direction_850mb
355 345 330 317 309 275 278 292 288 307 324 349 324 332 350 327 6 64 26 233 248 210 251 234 229 217 211 220 222 223 236 242 242 243 238 232 228 222
3 5 5 350 341 305 312 308 319 310 314 97 346 345 358 302 307 316 282 324 285 217 236 247 244 231 230 233 234 232 237 240 239 234 230 227 227 220
20 23 26 25 52 40 30 348 358 13 326 356 4 19 25 30 357 330 296 313 300 299 254 244 244 245 236 235 234 234 234 232 230 226 225 221 219 216
28 36 32 26 21 16 37 40 37 35 77 20 46 60 54 65 55 45 19 258 278 281 289 270 230 244 242 234 232 229 228 220 220 220 221 214 214 210
32 35 28 31 39 27 41 70 46 50 52 75 90 67 85 79 77 68 61 54 354 293 282 295 272 250 235 228 223 220 214 214 213 213 210 208 207 203
34 37 35 41 48 45 61 74 71 64 41 58 41 46 124 129 54 49 56 61 66 58 75 121 276 271 264 227 216 208 207 207 201 202 200 198 199 198
31 27 39 37 42 44 47 55 66 67 60 56 43 44 66 101 13 24 26 30 41 55 59 76 83 102 121 171 209 209 201 192 192 194 193 195 197 196
43 48 54 53 45 44 45 43 52 59 71 64 63 63 60 48 44 37 22 16 40 37 60 64 75 77 82 82 86 157 175 179 183 186 187 192 197 197
44 48 55 59 57 49 42 33 38 44 51 43 34 53 47 47 72 76 66 63 69 51 71 60 71 74 74 71 101 123 156 170 175 181 189 194 196 196
42 39 44 53 45 39 43 37 46 52 57 62 72 55 71 92 77 69 63 57 59 60 77 75 70 71 79 76 76 114 148 162 171 176 178 180 170 173
35 27 27 31 30 43 61 68 61 63 63 64 69 72 86 93 87 80 74 67 78 72 66 63 53 76 72 82 86 98 116 151 164 170 165 167 163 151
25 17 23 34 53 67 66 63 67 73 69 64 63 64 67 87 67 43 25 354 344 5 30 42 41 42 69 70 86 99 104 116 123 124 131 136 144 153
19 7 24 46 63 56 38 35 24 21 38 59 47 42 47 37 16 350 27 61 147 102 42 43 74 82 101 94 75 81 95 104 120 125 127 124 130 150
7 10 17 33 48 50 50 30 28 23 7 150 35 53 84 66 58 58 47 142 127 100 73 116 111 81 90 91 94 85 75 90 102 99 107 111 109 111
337 346 352 355 347 65 56 46 53 39 83 76 30 54 64 59 50 48 38 56 134 139 105 112 105 113 94 94 98 95 96 84 103 109 114 106 112 118
321 337 341 339 357 65 43 28 35 13 148 204 354 7 73 56 40 66 39 46 61 120 129 118 107 122 124 105 108 114 110 114 112 97 95 116 125 114
327 335 343 346 341 210 266 38 66 78 34 8 290 88 63 68 88 127 74 91 65 94 97 110 112 133 111 108 113 129 133 128 124 137 135 109 97 97
322 324 334 332 343 243 156 269 336 34 359 356 51 90 98 87 108 61 121 124 99 108 87 118 127 128 126 129 125 140 129 139 169 167 174 210 149 82
322 335 326 321 327 305 240 103 39 320 261 326 342 134 81 81 41 54 45 200 142 120 84 122 159 159 153 139 157 162 157 173 168 147 142 198 246 220
313 317 318 318 315 241 214 299 195 355 164 43 46 42 99 23 95 53 37 75 8 159 164 273 204 41 195 142 151 178 172 186 173 142 103 127 135 181
320 312 314 305 289 261 216 229 216 227 138 193 169 179 267 317 289 314 292 295 75 294 234 186 209 225 112 137 115 144 198 195 201 206 197 221 245 259
296 314 345 309 286 262 233 225 204 226 224 229 205 239 268 277 284 283 259 292 297 50 286 265 230 177 164 181 199 94 114 127 153 191 195 194 200 205
299 301 292 310 288 276 225 217 226 219 215 240 226 233 248 257 274 297 289 250 296 177 99 108 84 83 332 254 193 177 154 153 165 151 147 127 142 182